Regional Weather Roundup
Issued by NWS Grand Forks, ND

Home | Current Version | Previous Version | Text Only | Print | Product List | Glossary Off
Versions: 1 2 3 4 5 6 7 8 9 10 11 12 13 14 15 16 17 18 19 20 21 22 23 24 25 26 27 28 29 30 31 32 33 34 35 36 37 38 39 40 41 42 43 44 45 46 47 48 49 50

000
ASUS43 KFGF 222310
RWRFGF
PRAIRIE TO PINES  WEATHER ROUNDUP
NATIONAL WEATHER SERVICE EASTERN NORTH DAKOTA/GRAND FORKS ND
600 PM CDT THU JUN 22 2017

 **SATELLITE DATA USED TO AUGMENT SKY COVER AT AUTOMATED STATIONS**
 *****  WEATHER ACROSS EASTERN NORTH DAKOTA  *****

CITY           SKY/WX    TMP DP  RH WIND       PRES   REMARKS
GRAND FORKS    PTSUNNY   75  39  27 W23G31    29.67F
GRAND FRKS AFB FAIR      72  38  28 NW23G31   29.68F
DEVILS LAKE    FAIR      70  39  32 W26G38    29.70S
FARGO          FAIR      77  37  23 W21G36    29.71S
WAHPETON ARPT  FAIR      77  37  24 NW18      29.74R
$$

 ***** WEATHER ACROSS CENTRAL AND WESTERN NORTH DAKOTA  *****

CITY           SKY/WX    TMP DP  RH WIND       PRES   REMARKS
BISMARCK       FAIR      75  31  19 NW20G35   29.81R
MINOT          PTSUNNY   69  37  30 W31G44    29.75S
JAMESTOWN      FAIR      73  36  25 NW18G25   29.76F
MINOT AFB      FAIR      66  44  44 NW32G43   29.73S
GARRISON         N/A     70  34  26 NW31G44   29.78S
WILLISTON      PTSUNNY   64  44  48 W30G41    29.87R
DICKINSON      PTSUNNY   71  23  16 NW28G40   29.85F
HETTINGER      PTSUNNY   72  29  20 W26G33    29.91R
$$

 *****  OTHER AIRPORT OBSERVATIONS IN OUR AREA  *****

CITY           SKY/WX    TMP DP  RH WIND       PRES   REMARKS
WALHALLA       NOT AVBL
GRAFTON AIRPOR FAIR      72  41  33 W21G36    29.66S
VALLEY CITY AR FAIR      73  36  25 W22G31    29.77S
CANDO          NOT AVBL
CAVALIER APRT  FAIR      70  43  37 W26G35    29.63R
GWINNER        CLEAR     75  41  29 NW22      29.76S
SHEYENNE NWR     N/A     77  40  26 W15       29.95S
ROLLA            N/A     63  43  48 W22G38    29.69S
 ***** THE ABOVE OBSERVATIONS ARE NON NWS ARE NOT QUALITY
       CONTROLLED AND MAY MIS-REPORT RAIN FOR SNOW...
$$

  *****  WEATHER ACROSS NORTHERN MINNESOTA  *****

CITY           SKY/WX    TMP DP  RH WIND       PRES   REMARKS
FLAG ISLAND    FAIR      70  37  30 W22G28    29.55S HAZE
WARROAD        FAIR      70  45  40 SW15G33   29.60S
ROSEAU           N/A     72  43  35 W21G35    29.61S
HALLOCK        FAIR      72  37  28 W21G31    29.62S
THF RVR FALLS  FAIR      71  39  31 W18G31    29.68S
BAUDETTE       FAIR      70  39  32 W17G28    29.61R
WASKISH        FAIR      72  52  49 W16G24    29.65S
CROOKSTON      FAIR      73  39  29 NW22G29   29.69S
STEPHEN NDAWN    N/A     72  36  26 W23         N/A
GREENBUSH NDAW   N/A     70  41  35 W20         N/A
$$
  *****  WEATHER ACROSS CENTRAL AND WEST MINNESOTA  *****

CITY           SKY/WX    TMP DP  RH WIND       PRES   REMARKS
FOSSTON        FAIR      72  37  28 W18G30    29.71R
BEMIDJI        FAIR      74  40  29 W22G29    29.69R
PARK RAPIDS    FAIR      78  40  25 W21G32    29.70F
ELBOW LAKE     CLOUDY    72  50  46 NW7       29.75S
WADENA         PTSUNNY   72  52  49 W8        29.72F
DETROIT LAKES  FAIR      75  37  25 NW18G26   29.74S
MOORHEAD       FAIR      73  39  29 W16G23    29.73R
FERGUS FALLS   FAIR      77  48  36 NW18      29.70S
MORRIS MN      FAIR      75  57  53 SW12      29.75F
STAPLES        FAIR      73  46  38 W8        29.72F
$$
  *****  WEATHER ELSEWHERE ACROSS MINNESOTA  *****

CITY           SKY/WX    TMP DP  RH WIND       PRES   REMARKS
DULUTH         FAIR      73  49  42 W8        29.67F
INTRNTL FALLS  LGT RAIN  69  42  37 SW12G35   29.61S
ELY            FAIR      72  41  33 W9        29.64S
CLOQUET        PTSUNNY   73  46  38 W10       29.69F
WHEATON        PTSUNNY   75  52  43 W6        29.76S
BRAINERD       FAIR      76  47  35 SW15      29.71F
HIBBING        PTSUNNY   70  45  40 W10G23    29.67S
ALEXANDRIA     FAIR      73  57  57 SW13      29.76F
SAINT CLOUD    FAIR      73  49  42 W8        29.75F
MINNEAPOLIS    PTSUNNY   71  63  75 W3        29.74F
$$

  *****  WEATHER ACROSS SOUTH DAKOTA  *****

CITY           SKY/WX    TMP DP  RH WIND       PRES   REMARKS
SIOUX FALLS    CLOUDY    71  61  70 N13       29.77S
BROOKINGS      PTSUNNY   71  51  49 N8        29.82R
WATERTOWN      FAIR      73  53  49 W7        29.80F
HURON          FAIR      76  52  43 VRB3      29.81S
SISSETON         N/A     81  47  30 NW17      29.74F
ABERDEEN       FAIR      76  42  29 NW10      29.78S
MITCHELL       CLOUDY    75  51  43 N13       29.81S
PIERRE         FAIR      77  44  30 VRB5      29.83S
MOBRIDGE       FAIR      80  33  18 NW20G25   29.80S
RAPID CITY     FAIR      78  36  21 NW18G30   29.91F
$$

  *****  SOME WEATHER IN NEARBY STATES *****

CITY           SKY/WX    TMP DP  RH WIND       PRES   REMARKS
GLASGOW MT     LGT RAIN  53  47  79 W25G40    30.02R
GREAT FALLS MT FAIR      62  34  35 N21G29    30.20R
CHEYENNE WY    FAIR      77  38  24 NE10      30.03R
SCOTTSBLUFF NE FAIR      80  53  39 NE13G20   29.90R
OMAHA NE       PTSUNNY   91  67  44 SW7       29.61F HX  94
DES MOINES IA  FAIR      87  69  54 S13       29.64F HX  91
DAVENPORT IA   FAIR      82  69  64 S21G31    29.67F
CHICAGO IL     PTSUNNY   85  68  56 SW21G31   29.71F
EAU CLAIRE WI  CLOUDY    69  66  90 N7        29.73R
LA CROSSE WI   LGT RAIN  70  68  93 SE5       29.69F
$$

  *****  SOME NATIONAL WEATHER *****

CITY           SKY/WX    TMP DP  RH WIND       PRES   REMARKS
LA GUARDIA NY  PTSUNNY   80  64  58 S14       29.90R
RALEIGH NC     CLOUDY    77  72  84 SW8       30.05F
ATLANTA GA     CLOUDY    80  76  87 S8        30.02F THUNDER
NEW ORLEANS LA PTSUNNY   84  76  76 S18G24    29.81S HX  93
OKLAHOMA CITY  FAIR      90  66  45 S10       29.65F HX  92
ALBUQUERQUE NM FAIR     101  24   6 W18       29.88F HX  94
SALT LAKE CITY FAIR      87  22   9 NW14      30.00F
LOS ANGELES CA FAIR      71  61  70 SW9       29.82F
BOISE ID       FAIR      81  28  14 W20G26    30.07F
SEATTLE WA     FAIR      73  47  39 NW10      30.26F
$$

*** WEATHER ACROSS MANITOBA...SASKATCHEWAN AND ONTARIO ***
                ***ONTARIO***

CITY           SKY/WX    TMP DP  RH WIND       PRES   REMARKS
GERALDTON      MOSUNNY   68  54  60 W7        29.56S
THUNDER BAY    MOSUNNY   79  43  27 W16       29.56S
SIOUX LOOKOUT  PTSUNNY   68  41  37 W10       29.55S
TORONTO        PTSUNNY   72  63  73 SE7       29.80F
BIG TROUT LK   CLOUDY    59  54  82 S8        29.51S
PICKLE LAKE    PTSUNNY   64  43  45 W6        29.52S
DRYDEN         LGT RAIN  63  52  67 W17G29    29.57R
KENORA         PTSUNNY   68  37  32 SW21G28   29.54F
$$
                *** MANITOBA***

CITY           SKY/WX    TMP DP  RH WIND       PRES   REMARKS
BRANDON        PTSUNNY   61  48  63 W23G33    29.62F
DAUPHIN        PTSUNNY   64  52  63 W18G29    29.53R
ISLAND LAKE    MOSUNNY   64  52  63 SE3       29.46F
PILOT MOUND      N/A     61  43  51 W18G28      N/A
THE PAS        LGT RAIN  57  54  88 N13G20    29.58R
THOMPSON       PTSUNNY   66  52  59 E5        29.51R
WINNIPEG       PTSUNNY   61  46  59 W23G32    29.57F
LYNN LAKE      PTSUNNY   61  46  59 N18G28    29.66R
CHURCHILL      PTSUNNY   39  36  87 NE25      29.70R
GILLAM         PTSUNNY   68  50  52 E6        29.51R
$$
                ***SASKATCHEWAN***

CITY           SKY/WX    TMP DP  RH WIND       PRES   REMARKS
ESTEVAN        LGT RAIN  57  50  77 W25G35    29.79S
KINDERSLEY     PTSUNNY   55  39  54 NW20G31   30.04R
LLOYDMINSTER   PTSUNNY   54  37  54 N15G24    30.07R
PRINCE ALBERT  PTSUNNY   54  45  71 N18G33    29.87R
REGINA         LGT RAIN  57  52  82 NW28G40   29.82R
YORKTON        LGT RAIN  59  55  88 NW15G22   29.64
N. BATTLEFORD  CLOUDY    55  41  58 NW21G33   30.02R
LA RONGE       PTSUNNY   59  45  58 NW17G32   29.85R
SASKATOON      PTSUNNY   57  45  62 NW24G33   29.93R
SWIFT CURRENT  CLOUDY    50  46  87 NW25G35   30.01R
$$
NOTE: THESE ARE AUTOMATED STATIONS WITH LIMITED QUALITY CONTROL
      "FAIR" INDICATES FEW OR NO CLOUDS BELOW 12,000 FEET WITH NO
      SIGNIFICANT WEATHER AND/OR OBSTRUCTIONS TO VISIBILITY.
      SKY/WX - SKY CONDITION AND SIGNIFICANT WEATHER.
      TMP - AIR TEMPERATURE.    DP   - DEWPOINT TEMPERATURE.
      RH  - RELATIVE HUMIDITY.  PRES - PRESSURE.
      HX  - HEAT INDEX.         WCI  - WIND CHILL INDEX.
$




USA.gov is the U.S. government's official web portal to all federal, state and local government web resources and services.